[[{"header":{"parameterUnit":"m.s-1","parameterCategory":1,"la1":30.2991,"la2":30.254,"lo1":-89.0895,"lo2":-89.0444,"dy":0.0017,"dx":0.0017,"nx":28,"ny":28,"refTime":"2024-08-31T21:00:00:Z","depth":0,"parameterNumber":2,"parameterNumberName":"U-component_of_WINDS"},"data":[0,0,0,0,0,0,0,0,0,0,0,0,0,0,0,0,0,0,0,0,0,0,0,0,0,0,0,0,0,0,0,0,0,0,0,0,0,0,0,0,0,0,0,0,0,0,0,0,0,0,0,0,0,0,0,0,0,0,-3.462,-3.4619,0,-3.4526,-3.4525,-3.4524,-3.4406,-3.4404,-3.4402,-3.4401,-3.4307,-3.4306,-3.4305,0,0,0,0,0,0,0,0,0,0,0,0,0,-3.4704,-3.4703,-3.462,-3.4619,-3.4618,-3.4526,-3.4525,-3.4523,-3.4407,-3.4404,-3.4402,-3.44,-3.4307,-3.4306,-3.4305,0,0,0,0,0,0,0,0,0,0,0,0,0,-3.4644,-3.4703,-3.4621,-3.4549,-3.4541,-3.4526,-3.4525,-3.4523,-3.4407,-3.4404,-3.4401,-3.4399,-3.4307,-3.4306,-3.4305,-3.4354,0,0,-3.4302,-3.4301,0,0,0,0,0,0,0,0,-3.4648,-3.4641,-3.456,-3.4553,-3.4545,-3.4475,-3.4519,-3.4467,-3.4408,-3.4458,-3.4401,-3.4397,-3.4365,-3.4359,-3.4348,-3.435,-3.4346,-3.4302,-3.4301,-3.43,-3.43,0,0,0,0,0,0,0,-3.4652,-3.4645,-3.4583,-3.4559,-3.455,-3.4522,-3.4511,-3.4509,-3.4429,-3.4453,-3.4445,-3.4435,-3.4361,-3.4349,-3.4345,-3.4344,-3.4302,-3.4301,-3.43,-3.4299,-3.4384,-3.4387,0,0,0,0,0,0,-3.4667,-3.4649,-3.4586,-3.458,-3.4591,-3.4523,-3.451,-3.45,-3.4428,-3.4415,-3.4437,-3.443,-3.4352,-3.4346,-3.4341,-3.4394,-3.43,-3.4299,-3.4299,-3.4381,-3.4385,-3.4388,0,0,0,0,0,0,-3.4669,-3.4662,-3.459,-3.4612,-3.4601,-3.4525,-3.4515,-3.45,-3.4488,-3.4416,-3.4402,-3.444,-3.435,-3.4342,-3.4352,-3.4389,-3.4299,-3.4298,-3.4378,-3.4382,-3.4386,-3.4501,0,0,0,0,0,0,-3.4672,-3.4664,-3.468,-3.4613,-3.46,-3.4602,-3.4517,-3.45,-3.4486,-3.4475,-3.4415,-3.4402,-3.4347,-3.4354,-3.4351,-3.4386,-3.4297,-3.4374,-3.438,-3.4385,-3.4493,-3.4509,-3.4522,0,0,0,0,0,-3.4675,-3.4717,-3.4682,-3.4675,-3.4619,-3.4604,-3.4596,-3.4531,-3.449,-3.4506,-3.4461,-3.4404,-3.4386,-3.4356,-3.4351,-3.4387,-3.4371,-3.4378,-3.4384,-3.4487,-3.4506,-3.4521,0,0,0,0,0,0,-3.479,-3.4706,-3.4667,-3.4688,-3.4654,-3.4584,-3.4603,-3.4553,-3.4531,-3.4521,-3.4443,-3.443,-3.445,-3.4419,-3.4388,-3.4431,-3.437,-3.4376,-3.445,-3.4467,-3.4481,-3.4488,-3.4296,0,0,0,0,0,-3.4818,-3.4811,-3.4739,-3.4764,-3.4749,-3.468,-3.4671,-3.4624,-3.4586,-3.4571,-3.4525,-3.4492,-3.4478,-3.4471,-3.4455,-3.4489,-3.4475,-3.4511,-3.4526,-3.4537,-3.4543,-3.456,-3.4576,-3.4409,-3.4409,-3.4409,0,0,-3.4875,-3.4829,-3.4829,-3.4786,-3.4754,-3.4751,-3.4668,-3.4667,-3.4664,-3.4571,-3.4577,-3.4543,-3.45,-3.4523,-3.453,-3.4498,-3.4586,-3.4546,-3.4556,-3.4555,-3.4569,-3.4584,-3.4598,-3.4414,-3.4413,-3.4412,0,0,-3.4977,-3.4941,-3.4958,-3.4929,-3.4882,-3.4835,-3.484,-3.4778,-3.4752,-3.4757,-3.4687,-3.4683,-3.4662,-3.4635,-3.4618,-3.4713,-3.4661,-3.471,-3.4784,-3.4801,-3.4814,-3.4826,-3.486,-3.4873,-3.4717,-3.4717,-3.4717,0,-3.5054,-3.5044,-3.4974,-3.4978,-3.4962,-3.4878,-3.4896,-3.4871,-3.4821,-3.4813,-3.4777,-3.475,-3.4715,-3.473,-3.4754,-3.4743,-3.4747,-3.4716,-3.4818,-3.4829,-3.4838,-3.487,-3.4883,-3.4723,-3.4723,-3.4722,-3.4721,0,-3.5142,-3.5136,-3.5157,-3.5111,-3.5097,-3.5108,-3.5041,-3.5036,-3.4992,-3.495,-3.4957,-3.4913,-3.4887,-3.4887,-3.4844,-3.4897,-3.4879,-3.4832,-3.4769,-3.4861,-3.489,-3.4902,-3.4732,-3.473,-3.4728,-3.4727,0,0,-3.5311,-3.5228,-3.5236,-3.5215,-3.5158,-3.5153,-3.5162,-3.5136,-3.5134,-3.5104,-3.5109,-3.5094,-3.5051,-3.5032,-3.4985,-3.5001,-3.508,-3.4952,-3.495,-3.4977,-3.5137,-3.5173,-3.5188,-3.5046,-3.5048,-3.5049,-3.5141,0,-3.5402,-3.541,-3.5349,-3.5374,-3.5369,-3.529,-3.5298,-3.5265,-3.5227,-3.5219,-3.5177,-3.5168,-3.5111,-3.5099,-3.5111,-3.5068,-3.5111,-3.5061,-3.5051,-3.5052,-3.5063,-3.5202,-3.5239,-3.5328,-3.5152,-3.5154,-3.5155,0,-3.5508,-3.5484,-3.5509,-3.5452,-3.5448,-3.5456,-3.5428,-3.542,-3.5382,-3.5354,-3.5335,-3.5281,-3.5287,-3.5229,-3.5236,-3.5204,-3.5196,-3.5175,-3.5177,-3.5173,-3.5108,-3.5202,-3.5354,-3.5368,-3.5172,-3.517,-3.5169,0,-3.563,-3.5603,-3.5615,-3.5599,-3.5534,-3.5541,-3.5514,-3.5473,-3.5462,-3.5439,-3.5431,-3.541,-3.5397,-3.5383,-3.5325,-3.5288,-3.5341,-3.5277,-3.5318,-3.5319,-3.5331,-3.5331,-3.5484,-3.5328,-3.5328,-3.5328,-3.5328,0,-3.5737,-3.5756,-3.5668,-3.5675,-3.5694,-3.5625,-3.5646,-3.5612,-3.5577,-3.5577,-3.5509,-3.5511,-3.5435,-3.5429,-3.5385,-3.5399,-3.5394,-3.5372,-3.536,-3.5377,-3.538,-3.5371,-3.5363,-3.5331,-3.5331,-3.533,-3.5329,0,-3.5875,-3.5817,-3.5825,-3.5763,-3.5748,-3.5764,-3.5712,-3.5717,-3.5675,-3.5677,-3.5673,-3.5609,-3.5599,-3.554,-3.5517,-3.5487,-3.5517,-3.5493,-3.553,-3.5521,-3.5566,-3.5562,-3.5717,-3.5734,-3.5569,-3.5571,-3.5572,0,-3.5947,-3.5959,-3.5899,-3.5894,-3.587,-3.5863,-3.5851,-3.5785,-3.5776,-3.5735,-3.5745,-3.573,-3.5713,-3.5701,-3.5653,-3.5635,-3.561,-3.5666,-3.5607,-3.5625,-3.5611,-3.561,-3.5612,-3.5678,-3.568,-3.5682,-3.5683,0,-3.6081,-3.6052,-3.6037,-3.6014,-3.6003,-3.5981,-3.5955,-3.5956,-3.5882,-3.5876,-3.5864,-3.5852,-3.5828,-3.5814,-3.5789,-3.5762,-3.5712,-3.5703,-3.5711,-3.5729,-3.5749,-3.5739,-3.5563,-3.5699,-3.5697,-3.5696,-3.5695,-3.5695,-3.6187,-3.6195,-3.6154,-3.6141,-3.6115,-3.6093,-3.6095,-3.6055,-3.6043,-3.6018,-3.598,-3.5975,-3.5939,-3.5899,-3.5877,-3.5873,-3.5843,-3.5855,-3.5858,-3.5862,-3.5872,-3.5751,-3.5868,-3.5867,-3.5867,-3.5867,-3.5866,0,-3.6317,-3.6288,-3.6277,-3.6243,-3.6234,-3.6186,-3.6156,-3.6152,-3.6147,-3.6117,-3.6103,-3.6091,-3.6077,-3.6029,-3.6011,-3.6017,-3.5993,-3.6014,-3.6013,-3.6008,-3.5899,-3.5893,-3.6034,-3.6034,-3.6034,-3.6034,-3.6034,-3.6034,-3.6384,-3.6395,-3.6362,-3.636,-3.633,-3.6323,-3.6311,-3.6291,-3.6267,-3.6256,-3.6244,-3.6213,-3.6177,-3.6155,-3.6142,-3.6128,-3.6124,-3.6154,-3.6133,-3.6032,-3.6015,-3.6,-3.5994,-3.6154,-3.6154,-3.6241,-3.6242,-3.6243]},{"header":{"parameterUnit":"m.s-1","parameterCategory":1,"la1":30.2991,"la2":30.254,"lo1":-89.0895,"lo2":-89.0444,"dy":0.0017,"dx":0.0017,"nx":28,"ny":28,"refTime":"2024-08-31T21:00:00:Z","depth":0,"parameterNumber":3,"parameterNumberName":"V-component_of_WINDS"},"data":[0,0,0,0,0,0,0,0,0,0,0,0,0,0,0,0,0,0,0,0,0,0,0,0,0,0,0,0,0,0,0,0,0,0,0,0,0,0,0,0,0,0,0,0,0,0,0,0,0,0,0,0,0,0,0,0,0,0,1.0233,1.0234,0,1.0268,1.0268,1.0269,1.0303,1.0303,1.0304,1.0304,1.0341,1.0342,1.0342,0,0,0,0,0,0,0,0,0,0,0,0,0,1.0197,1.0198,1.0233,1.0234,1.0234,1.0268,1.0268,1.0269,1.0303,1.0303,1.0304,1.0304,1.0341,1.0342,1.0342,0,0,0,0,0,0,0,0,0,0,0,0,0,1.0221,1.0198,1.0233,1.0255,1.0257,1.0268,1.0268,1.0269,1.0303,1.0303,1.0304,1.0305,1.0341,1.0342,1.0343,1.0335,0,0,1.0345,1.0346,0,0,0,0,0,0,0,0,1.0219,1.0222,1.0251,1.0254,1.0256,1.0282,1.0269,1.0291,1.0302,1.0285,1.0304,1.0305,1.0321,1.0324,1.0329,1.0336,1.0338,1.0345,1.0346,1.0346,1.0346,0,0,0,0,0,0,0,1.0218,1.0221,1.0247,1.0252,1.0255,1.0263,1.0267,1.0274,1.0299,1.0287,1.029,1.0293,1.0322,1.0328,1.033,1.0339,1.0345,1.0346,1.0347,1.0347,1.0341,1.034,0,0,0,0,0,0,1.0212,1.0219,1.0246,1.0248,1.0239,1.0264,1.0268,1.0273,1.0299,1.0304,1.0292,1.0295,1.0326,1.0329,1.0331,1.0323,1.0346,1.0347,1.0347,1.0341,1.034,1.034,0,0,0,0,0,0,1.0211,1.0214,1.0245,1.0234,1.0239,1.0263,1.0269,1.0273,1.0279,1.0303,1.0308,1.0293,1.0327,1.033,1.0333,1.0325,1.0347,1.0348,1.0342,1.0341,1.034,1.0307,0,0,0,0,0,0,1.021,1.0214,1.0211,1.0234,1.0239,1.0246,1.0268,1.0273,1.028,1.0283,1.0305,1.031,1.0327,1.0332,1.0334,1.0327,1.0349,1.0343,1.0342,1.034,1.0309,1.0305,1.0302,0,0,0,0,0,1.0209,1.0201,1.0211,1.0214,1.0236,1.0245,1.0248,1.0268,1.0279,1.0276,1.0292,1.0309,1.0325,1.0332,1.0335,1.0327,1.0344,1.0342,1.0341,1.0311,1.0306,1.0302,0,0,0,0,0,0,1.0177,1.0204,1.0216,1.0215,1.0227,1.0251,1.0248,1.0263,1.0273,1.0275,1.03,1.0305,1.0305,1.0317,1.0323,1.0321,1.0337,1.0336,1.0313,1.0309,1.0305,1.0303,1.035,0,0,0,0,0,1.017,1.0175,1.0199,1.0196,1.0201,1.0223,1.0228,1.0242,1.0257,1.0262,1.0278,1.0292,1.03,1.0305,1.0314,1.0311,1.0316,1.0307,1.0303,1.03,1.0299,1.0298,1.0294,1.0335,1.0335,1.0335,0,0,1.0156,1.0171,1.0173,1.019,1.0201,1.0205,1.0228,1.0232,1.0235,1.0263,1.0267,1.0279,1.0296,1.0295,1.0296,1.0305,1.0289,1.0298,1.0296,1.0296,1.0296,1.0292,1.0288,1.0334,1.0334,1.0334,0,0,1.0132,1.0144,1.0142,1.0153,1.0169,1.0184,1.0184,1.0205,1.0214,1.0218,1.0238,1.0243,1.0257,1.0268,1.0275,1.0253,1.0269,1.0256,1.0236,1.0235,1.0231,1.0229,1.0221,1.0218,1.0254,1.0254,1.0254,0,1.0112,1.0119,1.014,1.0142,1.0149,1.0173,1.0172,1.0181,1.02,1.0204,1.0214,1.023,1.0244,1.0246,1.024,1.0245,1.0246,1.0253,1.023,1.0228,1.0225,1.0218,1.0215,1.0252,1.0253,1.0253,1.0253,0,1.0094,1.0098,1.0095,1.0112,1.0118,1.0118,1.0139,1.0143,1.0156,1.017,1.0173,1.019,1.0202,1.0203,1.0217,1.0207,1.0212,1.0225,1.0242,1.0219,1.0213,1.021,1.025,1.0251,1.0251,1.0252,0,0,1.0052,1.0079,1.0077,1.0085,1.0104,1.0108,1.011,1.0121,1.0123,1.0135,1.0137,1.0147,1.0159,1.0168,1.0183,1.0181,1.0162,1.0194,1.0195,1.0188,1.0152,1.0142,1.0138,1.0172,1.0172,1.0172,1.015,0,1.0031,1.0034,1.0052,1.0051,1.0055,1.0077,1.0079,1.0091,1.0103,1.0109,1.0123,1.013,1.0145,1.015,1.0149,1.0164,1.0155,1.0166,1.0174,1.0174,1.0169,1.0135,1.0125,1.0104,1.0148,1.0148,1.0147,0,1.0007,1.0017,1.0015,1.0033,1.0036,1.0037,1.0048,1.0053,1.0067,1.0076,1.0084,1.0101,1.0103,1.0118,1.0122,1.0129,1.0134,1.0141,1.0141,1.0143,1.016,1.0136,1.0098,1.0095,1.0144,1.0144,1.0144,0,0.9976,0.9989,0.9989,0.9995,1.0017,1.0016,1.0025,1.004,1.0045,1.0055,1.0059,1.0069,1.0075,1.0082,1.0101,1.011,1.0102,1.0119,1.011,1.0109,1.0108,1.0108,1.007,1.011,1.011,1.011,1.011,0,0.9951,0.995,0.9975,0.9976,0.9974,0.9995,0.9993,1.0004,1.0016,1.0019,1.0039,1.0042,1.0066,1.0071,1.0085,1.0086,1.0089,1.0096,1.01,1.0095,1.0093,1.0098,1.01,1.0109,1.011,1.011,1.011,0,0.9917,0.9934,0.9936,0.9956,0.9961,0.9959,0.9976,0.9977,0.999,0.9994,0.9996,1.0016,1.0023,1.0042,1.0054,1.0064,1.006,1.0068,1.0056,1.0058,1.0048,1.0048,1.0012,1.0008,1.005,1.005,1.0049,0,0.99,0.9899,0.9918,0.9921,0.9929,0.9934,0.9939,0.9959,0.9964,0.9979,0.9978,0.9986,0.9994,1.0004,1.002,1.0029,1.0037,1.0023,1.0039,1.0033,1.0037,1.0037,1.0036,1.002,1.002,1.0019,1.0019,0,0.9868,0.9876,0.9883,0.9892,0.9897,0.9905,0.9915,0.9916,0.9939,0.9943,0.9949,0.9955,0.9967,0.9975,0.9986,0.9996,1.0011,1.0014,1.0012,1.0007,1.0,1.0003,1.0047,1.0015,1.0015,1.0015,1.0016,1.0016,0.9842,0.9842,0.9855,0.9862,0.987,0.9878,0.988,0.9893,0.9899,0.9909,0.9921,0.9926,0.9939,0.9956,0.9964,0.9969,0.9977,0.9974,0.9974,0.9973,0.997,0.9998,0.9971,0.9971,0.9971,0.9971,0.9971,0,0.9812,0.9821,0.9826,0.9838,0.9843,0.9856,0.9866,0.987,0.9874,0.9885,0.9891,0.9899,0.9906,0.9922,0.9931,0.9931,0.9939,0.9933,0.9934,0.9935,0.9963,0.9963,0.9927,0.9927,0.9927,0.9927,0.9927,0.9927,0.9796,0.9796,0.9806,0.981,0.982,0.9825,0.9829,0.9837,0.9845,0.9852,0.9858,0.9869,0.9881,0.9891,0.9898,0.9903,0.9905,0.9897,0.9904,0.9929,0.9934,0.9938,0.9938,0.9898,0.9898,0.9877,0.9877,0.9877]}]]